STARLETTE 1 07646U 75010A 10066.25995644 .00000144 00000-0 22381-3 0 2084 2 07646 049.8254 172.6360 0205554 221.6854 136.8216 13.82274301772072 LAGEOS 1 1 08820U 76039A 10067.71652800 +.00000003 +00000-0 +10000-3 0 09241 2 08820 109.8581 303.0419 0044494 135.6207 224.8148 06.38664827533933 EGS (AJISAI) 1 16908U 86061A 10065.89918334 -.00000083 00000-0 10000-3 0 1552 2 16908 050.0091 071.2450 0011572 165.8242 194.2917 12.44463868740318 LAGEOS 2 1 22195U 92070B 10065.58099063 -.00000009 00000-0 10000-3 0 1300 2 22195 052.6542 065.0147 0138832 107.6790 253.8979 06.47294269410651 STELLA 1 22824U 93061B 10067.81283025 +.00000013 +00000-0 +22778-4 0 05114 2 22824 098.5133 013.6220 0005390 239.3052 120.7624 14.27286929856937 WESTPAC 1 25398U 98043E 10065.45187088 -.00000063 00000-0 -10012-4 0 7542 2 25398 098.3191 077.2676 0001793 137.2326 222.8991 14.22679588605308 GRACE 1 1 27391U 02012A 10067.79579143 +.00001071 +00000-0 +30855-4 0 04366 2 27391 089.0196 327.7301 0017040 147.3396 212.8899 15.34548633445885 GRACE 2 1 27392U 02012B 10065.96950112 .00001184 00000-0 34219-4 0 4333 2 27392 089.0182 327.9903 0017630 156.5844 203.6232 15.34544380445600